Find Meteor

NORAD ID: 6392 Int'l Des: 1973-015 Owner: GUKOSR/GMS Country: SU operational
LEOCIRCULARPOLAR

Live Position

Loading 3D Globe...

About Meteor

Description loading...

Upcoming Passes

Passes for default location (London). Set your location on the main map for personalized predictions.

Altitude History

Loading altitude history...

Two-Line Element Set

1 6392U 73015A 26109.41475297 .00000137 00000-0 72274-4 0 9990
2 6392 81.2402 345.1720 0055136 7.1918 353.0029 14.08108918724428
Epoch: Apr 19, 2026 • Age: 10 hours

Current Status

Altitude 830.0 km
Velocity 7.46 km/s
Sub-Earth Point 21.39°N, 164.05°W
Type other

Most Searched